Flag for Rwanda Weather past 2 weeks in Gitarama, Rwanda

Now
72 °F

Partly sunny.


Feels Like: 75 °F
Forecast: 57 / 80 °F
Wind: 10 mph from Southeast

Location: Kigali Airport

Current Time: Aug 2, 2015 at 11:13:46 AM

Latest Report: Aug 2, 2015 at 10:30 AM


Visibility: N/A

Pressure: 30.24 "Hg (24.35 "Hg at 1872m altitude)

Humidity: 65%

Dew point: 59 °F

Location of GitaramaLocation

Historic Weather in Gitarama — Graph

°F

Gitarama temperature yesterday

Maximum temperature yesterday: 86 °F (at 3:00 PM)
Minimum temperature yesterday: 61 °F (at 6:00 AM)
Average temperature yesterday: 75 °F

Past Weeks' High & Low Weather Summary

 TemperatureHumidityPressure
High86 °F (Jul 18, 3:30 PM)100% (Jul 27, 7:30 AM)30.24 "Hg (Jul 27, 7:30 AM)
Low59 °F (Jul 24, 6:30 AM)29% (Jul 28, 3:30 PM)30.04 "Hg (Jul 25, 4:00 PM)
Average74 °F57%30.14 "Hg
* Reported Jul 18 10:00 AM — Aug 2 10:00 AM, Gitarama, Weather by CustomWeather, © 2015

Note: Actual official high and low records may vary slightly from our data, if they occured in-between our weather recording intervals... More about our weather records

Advertising

Gitarama weather history for previous 24 hours

 ConditionsComfort  
Time TempWeatherWind HumidityBarometerVisibility
10:00 AM
Sun, Aug 2
72 °FPartly sunny.15 mph61%30.24 "Hg5 mi
9:30 AM72 °FPartly sunny.15 mph65%30.24 "Hg5 mi
9:00 AM70 °FPartly sunny.9 mph73%30.21 "Hg5 mi
8:30 AM70 °FPartly sunny.6 mph73%30.21 "Hg5 mi
8:00 AM68 °FPartly sunny.No wind78%30.21 "Hg4 mi
7:30 AM68 °FBroken clouds.No wind78%30.18 "Hg5 mi
7:00 AM68 °FBroken clouds.No wind78%30.15 "Hg5 mi
6:30 AM68 °FScattered clouds.No wind78%30.15 "HgN/A
6:00 AM68 °FPassing clouds.No wind78%30.12 "HgN/A
5:30 AM68 °FPassing clouds.No wind78%30.12 "HgN/A
5:00 AM68 °FPassing clouds.No wind73%30.12 "HgN/A
4:30 AM68 °FPassing clouds.3 mph73%30.12 "HgN/A
4:00 AM68 °FPassing clouds.3 mph78%30.12 "HgN/A
3:30 AM68 °FPassing clouds.3 mph73%30.09 "HgN/A
3:00 AM68 °FPassing clouds.5 mph73%30.12 "HgN/A
2:30 AM68 °FPassing clouds.5 mph73%30.12 "HgN/A
2:00 AM70 °FPassing clouds.3 mph69%30.12 "HgN/A
1:30 AM70 °FPassing clouds.No wind69%30.12 "HgN/A
1:00 AM70 °FPassing clouds.3 mph69%30.12 "HgN/A
12:30 AM72 °FPassing clouds.No wind65%30.15 "HgN/A
11:30 PM
Sat, Aug 1
73 °FPassing clouds.3 mph61%30.15 "HgN/A
11:00 PM75 °FPassing clouds.No wind57%30.15 "HgN/A
10:30 PM75 °FPassing clouds.No wind57%30.15 "HgN/A
10:00 PM73 °FPassing clouds.No wind57%30.15 "HgN/A
9:30 PM73 °FPassing clouds.No wind57%30.15 "HgN/A
9:00 PM75 °FPassing clouds.No wind57%30.12 "HgN/A
8:30 PM75 °FPassing clouds.No wind54%30.12 "HgN/A
8:00 PM77 °FPassing clouds.No wind51%30.09 "HgN/A
7:30 PM79 °FPassing clouds.3 mph48%30.09 "HgN/A
7:00 PM79 °FPassing clouds.6 mph48%30.07 "HgN/A
6:30 PM81 °FPassing clouds.7 mph45%30.07 "HgN/A
6:00 PM82 °FScattered clouds.6 mph42%30.07 "HgN/A
5:30 PM84 °FScattered clouds.7 mph40%30.04 "HgN/A
4:30 PM84 °FScattered clouds.6 mph40%30.04 "HgN/A
4:00 PM84 °FScattered clouds.9 mph40%30.04 "HgN/A
3:30 PM86 °FScattered clouds.9 mph35%30.07 "HgN/A
3:00 PM86 °FScattered clouds.9 mph35%30.07 "HgN/A
2:30 PM84 °FScattered clouds.7 mph37%30.07 "HgN/A
2:00 PM84 °FScattered clouds.7 mph37%30.09 "HgN/A
1:30 PM84 °FScattered clouds.7 mph43%30.09 "HgN/A
1:00 PM84 °FScattered clouds.7 mph43%30.12 "HgN/A
12:30 PM82 °FScattered clouds.6 mph48%30.15 "HgN/A
11:30 AM81 °FPassing clouds.7 mph51%30.18 "HgN/A
11:00 AM82 °FPassing clouds.3 mph48%30.18 "HgN/A
Weather by CustomWeather, © 2015

See weather overviewHow to use our weather pages